Time,TemperatureF,DewpointF,PressureIn,WindDirection,WindDirectionDegrees,WindSpeedMPH,WindSpeedGustMPH,Humidity,HourlyPrecipIn,Conditions,Clouds,dailyrainin,SoftwareType,DateUTC
2013-06-28 00:00:00,65.3,64.7,29.59,SW,225,2.0,6.0,98,0.02,,---,0.00,VWS V14.01,2013-06-28 04:00:00,
2013-06-28 01:00:00,64.7,64.1,29.60,NE,45,1.0,4.0,98,0.00,,---,0.00,VWS V14.01,2013-06-28 05:00:00,
2013-06-28 02:00:00,64.2,63.9,29.61,NNE,22,2.0,7.0,99,0.00,,---,0.00,VWS V14.01,2013-06-28 06:00:00,
2013-06-28 03:00:00,64.5,64.2,29.60,ENE,68,2.0,8.0,99,0.00,,---,0.00,VWS V14.01,2013-06-28 07:00:00,
2013-06-28 04:00:00,64.0,63.7,29.59,SSE,158,0.0,2.0,99,0.00,,---,0.00,VWS V14.01,2013-06-28 08:00:00,
2013-06-28 05:00:00,64.2,63.9,29.58,WNW,292,1.0,5.0,99,0.00,,---,0.00,VWS V14.01,2013-06-28 09:00:00,
2013-06-28 06:00:00,64.2,63.9,29.57,WSW,248,1.0,4.0,99,0.00,,---,0.00,VWS V14.01,2013-06-28 10:00:00,
2013-06-28 07:00:00,63.7,63.4,29.57,WNW,292,1.0,4.0,99,0.00,,---,0.00,VWS V14.01,2013-06-28 11:00:00,
2013-06-28 08:00:00,64.0,63.7,29.57,NW,315,2.0,9.0,99,0.00,,---,0.00,VWS V14.01,2013-06-28 12:00:00,
2013-06-28 09:00:00,64.9,64.3,29.56,West,270,3.0,6.0,98,0.00,,---,0.00,VWS V14.01,2013-06-28 13:00:00,
2013-06-28 10:00:00,68.5,64.8,29.55,WNW,292,3.0,10.0,88,0.00,,---,0.00,VWS V14.01,2013-06-28 14:00:00,
2013-06-28 11:00:00,68.5,64.8,29.55,WNW,292,3.0,10.0,88,0.00,,---,0.00,VWS V14.01,2013-06-28 15:00:00,
2013-06-28 11:26:00,70.7,66.0,29.55,West,269,4.0,5.0,85,0.00,,---,0.00,VWS V14.01,2013-06-28 15:26:00,
2013-06-28 11:31:00,70.8,66.1,29.55,WSW,248,4.0,7.0,85,0.00,,---,0.00,VWS V14.01,2013-06-28 15:31:00,
2013-06-28 11:36:00,71.4,65.6,29.55,NW,308,8.0,13.0,82,0.00,,---,0.00,VWS V14.01,2013-06-28 15:36:00,
2013-06-28 11:41:00,71.8,65.7,29.54,West,278,10.0,13.0,81,0.00,,---,0.00,VWS V14.01,2013-06-28 15:41:00,
2013-06-28 11:46:00,71.8,65.7,29.54,WNW,294,7.0,13.0,81,0.00,,---,0.00,VWS V14.01,2013-06-28 15:46:00,
2013-06-28 11:51:00,71.8,65.3,29.54,WNW,291,6.0,13.0,80,0.00,,---,0.00,VWS V14.01,2013-06-28 15:51:00,
2013-06-28 11:57:00,71.8,65.7,29.54,WNW,294,7.0,13.0,81,0.00,,---,0.00,VWS V14.01,2013-06-28 15:57:00,
2013-06-28 12:02:00,71.5,65.0,29.54,WNW,291,4.0,10.0,80,0.00,,---,0.00,VWS V14.01,2013-06-28 16:02:00,
2013-06-28 12:07:00,71.4,65.3,29.54,WNW,284,7.0,10.0,81,0.00,,---,0.00,VWS V14.01,2013-06-28 16:07:00,
2013-06-28 12:12:00,71.1,64.6,29.54,NW,314,3.0,10.0,80,0.00,,---,0.00,VWS V14.01,2013-06-28 16:12:00,
2013-06-28 12:17:00,70.8,65.0,29.54,North,352,4.0,10.0,82,0.00,,---,0.00,VWS V14.01,2013-06-28 16:17:00,
2013-06-28 12:22:00,70.6,65.2,29.55,West,259,3.0,10.0,83,0.00,,---,0.00,VWS V14.01,2013-06-28 16:22:00,
2013-06-28 12:27:00,70.3,65.2,29.54,WNW,294,2.0,10.0,84,0.00,,---,0.00,VWS V14.01,2013-06-28 16:27:00,
2013-06-28 12:32:00,70.2,65.5,29.54,WNW,288,6.0,10.0,85,0.00,,---,0.00,VWS V14.01,2013-06-28 16:32:00,
2013-06-28 12:37:00,70.0,64.9,29.54,West,280,5.0,11.0,84,0.00,,---,0.00,VWS V14.01,2013-06-28 16:37:00,
2013-06-28 12:42:00,69.9,65.5,29.54,NNW,333,5.0,11.0,86,0.00,,---,0.00,VWS V14.01,2013-06-28 16:42:00,
2013-06-28 12:47:00,69.8,64.1,29.54,WNW,285,6.0,11.0,82,0.00,,---,0.00,VWS V14.01,2013-06-28 16:47:00,
2013-06-28 12:53:00,69.6,63.9,29.54,West,266,2.0,11.0,82,0.00,,---,0.00,VWS V14.01,2013-06-28 16:53:00,
2013-06-28 12:58:00,69.6,64.6,29.54,West,280,4.0,11.0,84,0.00,,---,0.00,VWS V14.01,2013-06-28 16:58:00,
2013-06-28 13:00:00,71.6,65.5,29.54,NW,314,10.0,13.0,81,0.00,,---,0.00,VWS V14.01,2013-06-28 17:00:00,
2013-06-28 13:03:00,69.5,65.1,29.53,NW,311,5.0,5.0,86,0.00,,---,0.00,VWS V14.01,2013-06-28 17:03:00,
2013-06-28 13:08:00,69.6,65.2,29.53,WNW,294,5.0,6.0,86,0.00,,---,0.00,VWS V14.01,2013-06-28 17:08:00,
2013-06-28 13:13:00,69.7,65.3,29.54,NW,311,1.0,6.0,86,0.00,,---,0.00,VWS V14.01,2013-06-28 17:13:00,
2013-06-28 13:18:00,69.8,65.8,29.53,West,281,5.0,6.0,87,0.00,,---,0.00,VWS V14.01,2013-06-28 17:18:00,
2013-06-28 13:23:00,69.8,65.4,29.53,WNW,285,4.0,7.0,86,0.00,,---,0.00,VWS V14.01,2013-06-28 17:23:00,
2013-06-28 13:28:00,69.8,65.4,29.53,WNW,302,5.0,8.0,86,0.00,,---,0.00,VWS V14.01,2013-06-28 17:28:00,
2013-06-28 13:33:00,69.9,65.5,29.53,WNW,295,4.0,8.0,86,0.00,,---,0.00,VWS V14.01,2013-06-28 17:33:00,
2013-06-28 13:38:00,69.9,65.2,29.53,NW,307,1.0,8.0,85,0.00,,---,0.00,VWS V14.01,2013-06-28 17:38:00,
2013-06-28 13:43:00,70.0,64.9,29.53,West,277,4.0,8.0,84,0.00,,---,0.00,VWS V14.01,2013-06-28 17:43:00,
2013-06-28 13:49:00,70.2,64.8,29.53,WNW,298,2.0,8.0,83,0.00,,---,0.00,VWS V14.01,2013-06-28 17:49:00,
2013-06-28 13:54:00,70.4,64.7,29.53,West,281,4.0,10.0,82,0.00,,---,0.00,VWS V14.01,2013-06-28 17:54:00,
2013-06-28 13:59:00,70.6,64.5,29.52,West,267,2.0,10.0,81,0.00,,---,0.00,VWS V14.01,2013-06-28 17:59:00,
2013-06-28 14:00:00,69.5,64.8,29.54,NW,316,4.0,11.0,85,0.00,,---,0.00,VWS V14.01,2013-06-28 18:00:00,
2013-06-28 14:04:00,71.0,64.9,29.52,WNW,287,3.0,7.0,81,0.00,,---,0.00,VWS V14.01,2013-06-28 18:04:00,
2013-06-28 14:09:00,71.3,64.8,29.52,NNE,12,5.0,9.0,80,0.00,,---,0.00,VWS V14.01,2013-06-28 18:09:00,
2013-06-28 14:14:00,71.5,64.7,29.52,WNW,287,5.0,9.0,79,0.00,,---,0.00,VWS V14.01,2013-06-28 18:14:00,
2013-06-28 14:19:00,71.8,64.6,29.52,West,278,3.0,9.0,78,0.00,,---,0.00,VWS V14.01,2013-06-28 18:19:00,
2013-06-28 14:24:00,72.3,64.7,29.52,West,281,4.0,9.0,77,0.00,,---,0.00,VWS V14.01,2013-06-28 18:24:00,
2013-06-28 14:29:00,72.6,64.6,29.52,NW,304,3.0,9.0,76,0.00,,---,0.00,VWS V14.01,2013-06-28 18:29:00,
2013-06-28 14:34:00,72.6,64.6,29.52,NW,319,8.0,10.0,76,0.00,,---,0.00,VWS V14.01,2013-06-28 18:34:00,
2013-06-28 14:39:00,72.8,64.4,29.51,West,274,5.0,10.0,75,0.00,,---,0.00,VWS V14.01,2013-06-28 18:39:00,
2013-06-28 14:45:00,73.1,65.1,29.51,WSW,256,6.0,10.0,76,0.00,,---,0.00,VWS V14.01,2013-06-28 18:45:00,
2013-06-28 14:50:00,73.4,65.0,29.51,NW,306,2.0,10.0,75,0.00,,---,0.00,VWS V14.01,2013-06-28 18:50:00,
2013-06-28 14:55:00,73.7,63.7,29.51,NNW,335,6.0,11.0,71,0.00,,---,0.00,VWS V14.01,2013-06-28 18:55:00,
2013-06-28 15:00:00,73.8,63.0,29.51,NW,318,6.0,11.0,69,0.00,,---,0.00,VWS V14.01,2013-06-28 19:00:00,
2013-06-28 15:05:00,74.1,63.7,29.51,West,277,2.0,9.0,70,0.00,,---,0.00,VWS V14.01,2013-06-28 19:05:00,
2013-06-28 15:10:00,74.2,62.5,29.51,WNW,295,8.0,14.0,67,0.00,,---,0.00,VWS V14.01,2013-06-28 19:10:00,
2013-06-28 15:15:00,74.3,63.1,29.51,WNW,301,3.0,14.0,68,0.00,,---,0.00,VWS V14.01,2013-06-28 19:15:00,
2013-06-28 15:20:00,74.9,64.5,29.51,NNW,331,7.0,14.0,70,0.00,,---,0.00,VWS V14.01,2013-06-28 19:20:00,
2013-06-28 15:25:00,75.0,63.7,29.51,WNW,292,10.0,16.0,68,0.00,,---,0.00,VWS V14.01,2013-06-28 19:25:00,
2013-06-28 15:30:00,75.1,63.4,29.50,WNW,287,8.0,16.0,67,0.00,,---,0.00,VWS V14.01,2013-06-28 19:30:00,
2013-06-28 15:35:00,75.4,64.1,29.50,NW,307,8.0,16.0,68,0.00,,---,0.00,VWS V14.01,2013-06-28 19:35:00,
2013-06-28 15:40:00,75.3,64.0,29.50,NW,315,5.0,16.0,68,0.00,,---,0.00,VWS V14.01,2013-06-28 19:40:00,
2013-06-28 15:46:00,75.6,64.3,29.49,NW,314,6.0,16.0,68,0.00,,---,0.00,VWS V14.01,2013-06-28 19:46:00,
2013-06-28 15:51:00,75.8,64.9,29.49,WSW,242,2.0,16.0,69,0.00,,---,0.00,VWS V14.01,2013-06-28 19:51:00,
2013-06-28 15:56:00,76.2,64.0,29.49,WNW,288,6.0,16.0,66,0.00,,---,0.00,VWS V14.01,2013-06-28 19:56:00,
2013-06-28 16:00:00,73.8,63.0,29.51,NNW,329,5.0,11.0,69,0.00,,---,0.00,VWS V14.01,2013-06-28 20:00:00,
2013-06-28 16:01:00,76.7,64.5,29.49,NW,308,11.0,11.0,66,0.00,,---,0.00,VWS V14.01,2013-06-28 20:01:00,
2013-06-28 16:06:00,76.7,64.9,29.49,NNE,19,10.0,12.0,67,0.00,,---,0.00,VWS V14.01,2013-06-28 20:06:00,
2013-06-28 16:11:00,75.9,63.7,29.50,NW,310,4.0,15.0,66,0.00,,---,0.00,VWS V14.01,2013-06-28 20:11:00,
2013-06-28 16:16:00,75.0,64.2,29.51,NE,34,8.0,19.0,69,0.00,,---,0.00,VWS V14.01,2013-06-28 20:16:00,
2013-06-28 16:22:00,72.6,63.5,29.51,NNE,29,5.0,19.0,73,0.01,,---,0.01,VWS V14.01,2013-06-28 20:22:00,
2013-06-28 16:27:00,70.1,62.6,29.51,North,360,7.0,19.0,77,0.02,,---,0.02,VWS V14.01,2013-06-28 20:27:00,
2013-06-28 16:32:00,68.7,61.6,29.51,NNE,15,8.0,19.0,78,0.02,,---,0.02,VWS V14.01,2013-06-28 20:32:00,
2013-06-28 16:37:00,67.8,61.4,29.51,NNE,32,3.0,19.0,80,0.02,,---,0.02,VWS V14.01,2013-06-28 20:37:00,
2013-06-28 16:42:00,67.7,61.7,29.51,NE,37,10.0,19.0,81,0.02,,---,0.02,VWS V14.01,2013-06-28 20:42:00,
2013-06-28 16:47:00,67.6,62.3,29.50,NNE,13,6.0,19.0,83,0.02,,---,0.02,VWS V14.01,2013-06-28 20:47:00,
2013-06-28 16:52:00,68.0,63.3,29.50,NNE,26,8.0,19.0,85,0.02,,---,0.02,VWS V14.01,2013-06-28 20:52:00,
2013-06-28 16:57:00,68.8,64.1,29.49,NNE,25,12.0,19.0,85,0.02,,---,0.02,VWS V14.01,2013-06-28 20:57:00,
2013-06-28 17:00:00,76.7,64.9,29.49,WNW,302,8.0,16.0,67,0.00,,---,0.00,VWS V14.01,2013-06-28 21:00:00,
2013-06-28 17:02:00,69.4,64.4,29.49,NNE,15,7.0,11.0,84,0.02,,---,0.02,VWS V14.01,2013-06-28 21:02:00,
2013-06-28 17:07:00,69.4,64.4,29.49,NE,37,4.0,12.0,84,0.02,,---,0.02,VWS V14.01,2013-06-28 21:07:00,
2013-06-28 17:12:00,69.1,64.4,29.49,NE,39,6.0,12.0,85,0.02,,---,0.02,VWS V14.01,2013-06-28 21:12:00,
2013-06-28 17:18:00,69.0,64.6,29.50,NNE,32,5.0,12.0,86,0.02,,---,0.02,VWS V14.01,2013-06-28 21:18:00,
2013-06-28 17:23:00,68.7,64.7,29.50,NNE,21,5.0,12.0,87,0.02,,---,0.02,VWS V14.01,2013-06-28 21:23:00,
2013-06-28 17:28:00,68.7,65.0,29.51,NNE,29,2.0,12.0,88,0.02,,---,0.02,VWS V14.01,2013-06-28 21:28:00,
2013-06-28 17:33:00,68.6,64.6,29.51,NNE,19,3.0,12.0,87,0.02,,---,0.02,VWS V14.01,2013-06-28 21:33:00,
2013-06-28 17:38:00,68.6,64.9,29.51,NNE,31,6.0,12.0,88,0.02,,---,0.02,VWS V14.01,2013-06-28 21:38:00,
2013-06-28 17:43:00,68.7,65.0,29.50,NNW,342,7.0,12.0,88,0.02,,---,0.02,VWS V14.01,2013-06-28 21:43:00,
2013-06-28 17:49:00,68.5,64.2,29.51,NNE,20,5.0,12.0,86,0.02,,---,0.02,VWS V14.01,2013-06-28 21:49:00,
2013-06-28 17:54:00,68.4,64.1,29.51,NNE,23,3.0,12.0,86,0.02,,---,0.02,VWS V14.01,2013-06-28 21:54:00,
2013-06-28 17:59:00,68.4,63.7,29.52,NNE,20,3.0,12.0,85,0.02,,---,0.02,VWS V14.01,2013-06-28 21:59:00,
2013-06-28 18:00:00,69.3,64.3,29.49,NNW,342,5.0,19.0,84,0.02,,---,0.02,VWS V14.01,2013-06-28 22:00:00,
2013-06-28 18:04:00,68.3,63.6,29.52,WNW,284,1.0,4.0,85,0.00,,---,0.02,VWS V14.01,2013-06-28 22:04:00,
2013-06-28 18:09:00,68.2,63.2,29.52,NW,304,4.0,5.0,84,0.00,,---,0.02,VWS V14.01,2013-06-28 22:09:00,
2013-06-28 18:14:00,68.1,63.1,29.52,NW,305,2.0,5.0,84,0.00,,---,0.02,VWS V14.01,2013-06-28 22:14:00,
2013-06-28 18:19:00,68.1,63.1,29.52,North,352,2.0,5.0,84,0.00,,---,0.02,VWS V14.01,2013-06-28 22:19:00,
2013-06-28 18:24:00,68.1,62.4,29.53,West,281,2.0,5.0,82,0.00,,---,0.02,VWS V14.01,2013-06-28 22:24:00,
2013-06-28 18:29:00,68.0,62.7,29.53,WNW,288,2.0,5.0,83,0.00,,---,0.02,VWS V14.01,2013-06-28 22:29:00,
2013-06-28 18:34:00,68.1,63.1,29.53,WNW,284,0.0,5.0,84,0.00,,---,0.02,VWS V14.01,2013-06-28 22:34:00,
2013-06-28 18:39:00,68.1,62.8,29.53,NW,320,0.0,5.0,83,0.00,,---,0.02,VWS V14.01,2013-06-28 22:39:00,
2013-06-28 18:44:00,68.0,63.0,29.53,West,278,3.0,5.0,84,0.00,,---,0.02,VWS V14.01,2013-06-28 22:44:00,
2013-06-28 18:49:00,67.9,62.9,29.54,West,259,3.0,5.0,84,0.00,,---,0.02,VWS V14.01,2013-06-28 22:49:00,
2013-06-28 18:55:00,67.8,62.8,29.55,WSW,243,3.0,5.0,84,0.00,,---,0.02,VWS V14.01,2013-06-28 22:55:00,
2013-06-28 19:00:00,67.9,62.2,29.55,WSW,240,3.0,5.0,82,0.00,,---,0.02,VWS V14.01,2013-06-28 23:00:00,
2013-06-28 19:05:00,68.0,62.7,29.54,West,280,2.0,4.0,83,0.00,,---,0.02,VWS V14.01,2013-06-28 23:05:00,
2013-06-28 19:10:00,68.1,62.4,29.55,WSW,249,3.0,6.0,82,0.00,,---,0.02,VWS V14.01,2013-06-28 23:10:00,
2013-06-28 19:15:00,68.1,62.8,29.55,WSW,238,5.0,7.0,83,0.00,,---,0.02,VWS V14.01,2013-06-28 23:15:00,
2013-06-28 19:20:00,67.9,62.9,29.54,West,262,3.0,7.0,84,0.00,,---,0.02,VWS V14.01,2013-06-28 23:20:00,
2013-06-28 19:25:00,67.9,62.9,29.54,WNW,293,4.0,7.0,84,0.00,,---,0.02,VWS V14.01,2013-06-28 23:25:00,
2013-06-28 19:30:00,67.8,62.8,29.54,West,260,3.0,7.0,84,0.00,,---,0.02,VWS V14.01,2013-06-28 23:30:00,
2013-06-28 19:35:00,67.8,62.5,29.54,West,272,3.0,7.0,83,0.00,,---,0.02,VWS V14.01,2013-06-28 23:35:00,
2013-06-28 19:40:00,67.8,62.5,29.54,West,263,2.0,7.0,83,0.00,,---,0.02,VWS V14.01,2013-06-28 23:40:00,
2013-06-28 19:45:00,67.7,62.4,29.54,WSW,256,3.0,7.0,83,0.00,,---,0.02,VWS V14.01,2013-06-28 23:45:00,
2013-06-28 19:50:00,67.7,63.0,29.54,WNW,283,2.0,7.0,85,0.00,,---,0.02,VWS V14.01,2013-06-28 23:50:00,
2013-06-28 19:56:00,67.5,62.8,29.54,West,274,2.0,7.0,85,0.00,,---,0.02,VWS V14.01,2013-06-28 23:56:00,
2013-06-28 20:00:00,67.9,62.5,29.55,WSW,244,4.0,5.0,83,0.00,,---,0.02,VWS V14.01,2013-06-29 00:00:00,
2013-06-28 20:01:00,67.5,63.2,29.54,West,281,3.0,4.0,86,0.00,,---,0.02,VWS V14.01,2013-06-29 00:01:00,
2013-06-28 20:06:00,67.3,63.0,29.54,West,280,1.0,4.0,86,0.00,,---,0.02,VWS V14.01,2013-06-29 00:06:00,
2013-06-28 20:11:00,67.2,62.9,29.54,WNW,285,2.0,4.0,86,0.00,,---,0.02,VWS V14.01,2013-06-29 00:11:00,
2013-06-28 20:16:00,67.2,63.2,29.54,West,276,3.0,4.0,87,0.00,,---,0.02,VWS V14.01,2013-06-29 00:16:00,
2013-06-28 20:21:00,67.2,63.2,29.54,West,266,2.0,4.0,87,0.00,,---,0.02,VWS V14.01,2013-06-29 00:21:00,
2013-06-28 20:26:00,67.1,63.1,29.54,WNW,290,1.0,4.0,87,0.00,,---,0.02,VWS V14.01,2013-06-29 00:26:00,
2013-06-28 20:31:00,67.1,63.1,29.54,West,266,2.0,4.0,87,0.00,,---,0.02,VWS V14.01,2013-06-29 00:31:00,
2013-06-28 20:36:00,67.0,63.3,29.53,West,273,2.0,4.0,88,0.00,,---,0.02,VWS V14.01,2013-06-29 00:36:00,
2013-06-28 20:41:00,66.9,63.2,29.53,West,276,1.0,4.0,88,0.00,,---,0.02,VWS V14.01,2013-06-29 00:41:00,
2013-06-28 20:46:00,66.7,63.0,29.53,West,271,1.0,4.0,88,0.00,,---,0.02,VWS V14.01,2013-06-29 00:46:00,
2013-06-28 20:52:00,66.6,63.3,29.53,West,270,1.0,4.0,89,0.00,,---,0.02,VWS V14.01,2013-06-29 00:52:00,
2013-06-28 20:57:00,66.4,63.1,29.53,WNW,290,1.0,4.0,89,0.00,,---,0.02,VWS V14.01,2013-06-29 00:57:00,
2013-06-28 21:00:00,67.5,62.8,29.54,West,264,3.0,7.0,85,0.00,,---,0.02,VWS V14.01,2013-06-29 01:00:00,
2013-06-28 21:02:00,66.3,63.3,29.54,WNW,284,2.0,2.0,90,0.00,,---,0.02,VWS V14.01,2013-06-29 01:02:00,
2013-06-28 21:07:00,66.2,63.2,29.54,West,277,0.0,2.0,90,0.00,,---,0.02,VWS V14.01,2013-06-29 01:07:00,
2013-06-28 21:12:00,66.0,63.0,29.54,West,277,0.0,2.0,90,0.00,,---,0.02,VWS V14.01,2013-06-29 01:12:00,
2013-06-28 21:17:00,65.9,62.9,29.53,West,277,0.0,2.0,90,0.00,,---,0.02,VWS V14.01,2013-06-29 01:17:00,
2013-06-28 21:22:00,65.9,63.2,29.54,West,277,0.0,2.0,91,0.00,,---,0.02,VWS V14.01,2013-06-29 01:22:00,
2013-06-28 21:27:00,65.7,63.0,29.54,West,277,0.0,2.0,91,0.00,,---,0.02,VWS V14.01,2013-06-29 01:27:00,
2013-06-28 21:33:00,65.6,62.9,29.54,West,277,0.0,2.0,91,0.00,,---,0.02,VWS V14.01,2013-06-29 01:33:00,
2013-06-28 21:38:00,65.6,62.9,29.54,West,277,0.0,2.0,91,0.00,,---,0.02,VWS V14.01,2013-06-29 01:38:00,
2013-06-28 21:43:00,65.5,63.1,29.55,West,277,0.0,2.0,92,0.00,,---,0.02,VWS V14.01,2013-06-29 01:43:00,
2013-06-28 21:48:00,65.5,63.1,29.55,West,277,0.0,2.0,92,0.00,,---,0.02,VWS V14.01,2013-06-29 01:48:00,
2013-06-28 21:53:00,65.4,63.0,29.55,West,277,0.0,2.0,92,0.00,,---,0.02,VWS V14.01,2013-06-29 01:53:00,
2013-06-28 21:58:00,65.4,63.0,29.55,West,277,0.0,2.0,92,0.00,,---,0.02,VWS V14.01,2013-06-29 01:58:00,
2013-06-28 22:00:00,66.3,63.0,29.54,WNW,288,1.0,4.0,89,0.00,,---,0.02,VWS V14.01,2013-06-29 02:00:00,
2013-06-28 22:03:00,65.4,63.0,29.55,NW,310,0.0,1.0,92,0.00,,---,0.02,VWS V14.01,2013-06-29 02:03:00,
2013-06-28 22:08:00,65.4,63.3,29.54,NW,309,0.0,1.0,93,0.00,,---,0.02,VWS V14.01,2013-06-29 02:08:00,
2013-06-28 22:13:00,65.3,63.2,29.54,NW,309,0.0,1.0,93,0.00,,---,0.02,VWS V14.01,2013-06-29 02:13:00,
2013-06-28 22:18:00,65.2,63.1,29.55,NW,309,0.0,1.0,93,0.00,,---,0.02,VWS V14.01,2013-06-29 02:18:00,
2013-06-28 22:23:00,65.2,63.1,29.55,North,359,1.0,1.0,93,0.00,,---,0.02,VWS V14.01,2013-06-29 02:23:00,
2013-06-28 22:28:00,65.2,63.1,29.55,North,356,0.0,2.0,93,0.00,,---,0.02,VWS V14.01,2013-06-29 02:28:00,
2013-06-28 22:33:00,65.2,63.1,29.55,NNW,345,1.0,2.0,93,0.00,,---,0.02,VWS V14.01,2013-06-29 02:33:00,
2013-06-28 22:34:00,65.2,63.1,29.55,NNW,345,1.0,2.0,93,0.00,,---,0.02,VWS V14.01,2013-06-29 02:34:00,
2013-06-28 22:39:00,65.2,63.1,29.55,North,360,0.0,2.0,93,0.00,,---,0.02,VWS V14.01,2013-06-29 02:39:00,
2013-06-28 22:44:00,65.2,63.1,29.54,NNW,345,1.0,2.0,93,0.00,,---,0.02,VWS V14.01,2013-06-29 02:44:00,
2013-06-28 22:49:00,65.2,63.1,29.54,North,352,0.0,2.0,93,0.00,,---,0.02,VWS V14.01,2013-06-29 02:49:00,
2013-06-28 22:54:00,65.1,63.3,29.54,NNW,329,1.0,2.0,94,0.00,,---,0.02,VWS V14.01,2013-06-29 02:54:00,
2013-06-28 23:00:00,65.0,62.9,29.54,NW,321,1.0,2.0,93,0.00,,---,0.02,VWS V14.01,2013-06-29 03:00:00,
2013-06-28 23:05:00,64.9,63.1,29.54,North,356,0.0,2.0,94,0.00,,---,0.02,VWS V14.01,2013-06-29 03:05:00,
2013-06-28 23:10:00,64.7,62.9,29.53,North,350,0.0,2.0,94,0.00,,---,0.02,VWS V14.01,2013-06-29 03:10:00,
2013-06-28 23:15:00,64.4,62.6,29.54,NNW,348,0.0,2.0,94,0.00,,---,0.02,VWS V14.01,2013-06-29 03:15:00,
2013-06-28 23:20:00,64.2,62.4,29.54,North,350,0.0,2.0,94,0.00,,---,0.02,VWS V14.01,2013-06-29 03:20:00,
2013-06-28 23:25:00,64.0,62.2,29.54,NNW,348,0.0,2.0,94,0.00,,---,0.02,VWS V14.01,2013-06-29 03:25:00,
2013-06-28 23:30:00,63.9,62.1,29.53,North,349,0.0,2.0,94,0.00,,---,0.02,VWS V14.01,2013-06-29 03:30:00,
2013-06-28 23:35:00,63.8,62.3,29.53,NNW,348,0.0,2.0,95,0.00,,---,0.02,VWS V14.01,2013-06-29 03:35:00,
2013-06-28 23:40:00,63.7,62.2,29.53,NNW,348,0.0,2.0,95,0.00,,---,0.02,VWS V14.01,2013-06-29 03:40:00,
2013-06-28 23:45:00,63.7,62.2,29.54,NNW,348,0.0,2.0,95,0.00,,---,0.02,VWS V14.01,2013-06-29 03:45:00,
2013-06-28 23:50:00,63.6,62.2,29.54,NNW,328,1.0,2.0,95,0.00,,---,0.02,VWS V14.01,2013-06-29 03:50:00,
2013-06-28 23:51:00,63.6,62.2,29.53,NNW,328,0.0,2.0,95,0.00,,---,0.02,VWS V14.01,2013-06-29 03:51:00,
2013-06-28 23:56:00,63.7,62.5,29.53,NNW,329,0.0,2.0,96,0.00,,---,0.02,VWS V14.01,2013-06-29 03:56:00,